Temperature
19 19 20 20 17 15 17 19 19 20 21 22 23 22 20 20 20 20 20 20 19 18 17 16 15 14 14 13 13 12 12 12 11 11 11 11 10 10 10 10 10 10 10 10 10 11 11 11 11
19 19 20 20 15 16 17 19 19 21 22 23 23 22 21 20 21 20 20 19 19 18 18 17 15 14 14 13 13 12 12 11 11 11 11 10 10 10 10 10 10 10 10 11 11 11 11 11 11
19 19 20 16 16 16 19 19 19 21 22 23 22 22 21 20 20 20 20 20 19 18 17 17 15 14 14 13 12 12 12 11 11 11 11 10 10 10 10 11 11 11 11 11 11 12 12 12 12
19 20 19 16 18 18 19 19 20 21 22 23 22 20 20 19 20 20 20 19 19 18 17 17 16 15 14 13 12 12 11 11 11 10 10 10 10 10 11 11 11 12 12 12 12 12 12 12 12
20 19 16 16 18 19 19 21 22 20 21 22 21 19 19 19 20 19 19 19 19 18 17 17 16 15 14 13 12 12 11 11 10 10 10 10 10 10 11 11 11 12 12 12 12 12 12 12 12
20 17 15 16 18 19 20 21 21 20 21 21 21 19 19 19 19 19 19 18 18 18 17 16 16 15 14 13 12 12 11 11 10 10 10 10 10 10 11 11 11 11 11 12 12 12 12 12 12
19 15 16 17 18 19 20 21 21 20 20 21 21 18 18 19 19 18 18 18 17 17 17 16 16 15 14 13 12 12 11 11 10 10 10 10 10 10 10 11 11 11 11 11 11 11 12 12 11
20 15 17 16 18 19 20 21 21 21 21 21 21 19 18 19 18 18 17 17 17 16 16 16 15 14 13 12 12 11 11 11 11 10 10 10 10 10 10 10 10 10 11 11 11 11 11 11 11
20 15 16 18 19 19 20 20 21 21 21 21 20 20 20 19 18 17 17 16 16 16 15 15 15 14 13 12 12 11 11 11 10 10 10 10 10 10 10 10 10 10 10 10 10 10 11 11 11
19 15 18 19 19 19 19 20 20 20 20 19 19 19 19 19 18 18 17 17 16 16 15 15 14 14 13 12 11 11 11 10 10 10 10 10 9 9 9 9 9 9 9 9 10 10 10 10 10
19 17 17 19 20 20 19 19 20 19 18 19 19 19 19 18 18 17 17 17 16 16 15 15 14 14 13 12 12 11 10 10 10 10 10 9 9 9 9 9 9 9 9 9 9 9 9 9 9
19 19 19 19 20 20 19 19 19 19 19 19 19 19 18 18 18 17 17 16 16 16 15 15 14 13 13 12 12 11 11 10 10 10 9 9 9 9 9 9 9 9 8 8 8 8 9 9 9
18 18 19 20 20 20 19 19 18 19 19 19 19 18 18 18 17 17 17 17 16 16 15 15 14 13 12 12 11 11 11 10 10 10 9 9 9 9 9 9 8 8 8 8 8 8 8 8 8
19 19 19 19 19 19 18 18 17 19 19 18 18 18 18 17 17 17 17 17 16 16 15 14 14 13 12 12 11 11 10 10 10 9 9 9 9 9 9 8 8 8 8 8 8 8 8 7 7
19 17 16 17 18 18 18 17 16 19 19 18 18 18 17 17 17 17 17 17 16 16 15 14 14 13 12 12 11 11 10 10 10 9 9 9 9 8 8 8 8 8 8 7 7 7 7 7 7
17 16 16 16 17 17 17 16 16 19 18 18 17 17 17 17 16 16 16 16 16 15 15 14 13 13 12 12 11 11 10 10 10 9 9 9 9 8 8 8 8 8 8 7 7 7 7 7 7
15 15 16 16 17 16 16 16 16 18 18 17 17 17 16 16 16 16 16 16 16 15 15 14 13 13 12 11 11 11 10 10 10 9 9 9 9 9 8 8 8 8 7 7 7 7 7 7 7
15 15 16 16 17 16 15 15 15 17 17 17 16 16 16 16 16 16 15 15 15 15 14 14 13 13 12 11 11 11 10 10 10 10 9 9 9 9 8 8 8 8 7 7 7 7 7 6 6
15 15 15 15 16 16 14 14 15 16 16 15 15 15 15 15 15 15 15 15 15 14 14 14 13 13 12 11 11 11 10 10 10 10 9 9 9 9 9 8 8 8 7 7 7 6 6 6 6
15 15 15 15 16 16 14 14 14 14 15 15 15 15 15 15 15 15 15 15 15 14 14 14 13 13 12 12 11 11 11 10 10 10 10 9 9 9 8 8 8 7 7 7 7 6 6 6 6
15 15 15 15 15 15 15 14 14 14 15 15 15 15 15 16 15 15 14 14 14 14 14 14 13 13 12 12 11 11 11 10 10 10 10 9 9 8 8 7 7 7 7 6 6 6 5 5 5
14 15 15 15 14 12 14 12 13 14 13 12 13 13 14 15 15 15 14 14 14 14 13 13 13 12 12 12 11 11 11 11 10 10 9 9 8 8 8 7 7 7 6 6 6 6 5 5 5
15 15 16 15 14 12 12 12 13 13 13 12 11 12 14 15 15 15 14 14 13 13 13 13 12 12 12 11 11 11 11 10 10 9 9 9 8 8 7 7 7 6 6 6 6 5 5 5 4
15 15 13 11 11 11 11 11 12 12 13 12 11 12 13 14 14 14 13 13 13 13 12 12 12 12 12 11 11 11 10 10 10 9 9 8 8 7 7 7 6 6 6 6 5 5 5 4 4
14 13 12 12 10 11 12 11 12 14 13 13 12 12 13 14 14 14 13 13 13 12 12 12 12 12 11 11 11 10 10 10 9 9 8 8 8 7 7 6 6 6 6 5 5 5 4 4 3
13 13 12 12 11 11 13 12 13 14 14 15 14 13 13 13 14 14 14 13 13 13 12 12 12 11 11 11 10 10 9 9 8 8 8 7 7 7 6 6 6 5 5 5 5 4 4 3 3
12 12 12 12 12 12 12 12 13 15 14 13 13 12 12 13 14 14 13 13 13 12 12 12 11 11 11 10 10 9 9 8 8 8 7 7 6 6 6 5 5 5 5 4 4 4 3 3 3
13 12 11 11 11 11 12 13 13 14 14 12 11 11 12 13 13 13 13 13 12 12 12 11 11 10 10 10 9 9 8 8 7 7 7 6 6 6 5 5 5 5 4 4 4 3 3 2 2
12 13 12 11 10 11 11 13 14 14 13 12 11 12 12 13 13 13 13 13 12 11 11 11 10 10 9 9 9 8 8 7 7 6 6 6 5 5 5 5 4 4 4 3 3 3 2 2 1
12 12 11 11 11 10 10 12 14 13 13 12 12 13 13 13 14 13 13 12 12 11 11 10 10 9 9 9 8 8 7 7 6 6 6 5 5 5 4 4 4 3 3 3 2 2 1 1 1
Wind_Speed
6 5 3 4 6 5 2 3 4 4 3 2 3 6 7 4 4 3 2 12 11 16 22 22 20 18 17 15 15 14 14 13 12 12 11 11 11 12 12 12 12 12 12 12 12 13 13 13 13
4 3 4 5 5 3 3 3 5 6 6 3 3 5 5 1 1 5 5 10 16 20 21 21 21 19 18 16 15 14 14 13 12 11 11 10 10 11 11 11 11 11 11 11 11 11 11 11 11
4 2 4 5 3 4 3 4 6 4 4 4 3 4 5 3 1 5 6 13 16 18 20 21 22 20 18 17 16 15 13 13 12 11 10 10 10 10 10 10 10 10 10 10 10 10 10 10 9
4 5 5 4 2 5 6 7 6 4 2 2 4 5 3 2 3 4 9 14 14 14 20 22 23 21 19 17 16 15 14 13 12 11 10 10 9 9 9 8 8 8 8 8 8 8 8 8 8
4 5 5 2 4 4 4 5 6 6 2 2 3 4 2 8 3 8 12 14 15 12 19 22 23 21 19 18 17 16 14 13 12 11 10 9 9 8 8 7 7 6 6 7 7 7 6 6 6
5 5 4 2 4 3 3 1 5 6 3 2 4 4 1 4 3 8 11 12 13 14 19 21 23 21 20 19 18 17 15 13 12 11 10 9 8 8 7 6 5 5 4 4 4 4 4 4 4
4 4 1 3 3 2 3 2 5 5 4 1 4 5 2 3 4 6 9 10 11 16 17 18 20 20 20 19 18 17 15 14 13 12 10 9 8 7 7 6 5 4 3 2 2 2 2 2 3
5 4 2 3 2 2 6 3 2 3 2 0 4 7 6 6 4 6 7 8 9 10 12 15 17 18 18 18 18 17 16 14 13 12 11 10 9 7 7 6 5 4 3 2 2 2 2 2 3
4 4 1 2 0 2 4 4 6 2 3 4 4 3 4 6 7 7 6 5 7 9 9 12 13 16 16 16 17 18 16 15 14 13 13 11 9 8 7 8 7 6 5 5 4 4 5 5 5
5 3 4 3 3 3 1 1 3 3 3 2 2 2 3 6 7 8 8 9 10 11 11 9 11 14 15 14 15 15 15 14 14 13 13 12 11 10 9 9 10 9 8 7 7 7 7 7 6
4 5 5 3 3 4 2 2 2 1 3 5 5 6 5 5 6 8 8 9 11 12 12 11 11 14 14 11 12 12 12 13 13 13 13 12 11 9 9 9 10 10 9 9 9 9 9 9 9
3 4 4 4 3 3 3 2 2 3 7 5 6 7 6 6 7 8 9 8 8 10 13 12 12 12 13 13 11 11 11 11 11 13 14 12 9 8 8 9 10 10 10 9 10 10 11 12 13
2 4 3 4 5 4 4 4 3 6 7 3 4 6 6 5 4 5 6 7 8 10 12 13 11 11 12 11 10 10 10 11 12 12 13 13 10 8 8 8 10 11 11 10 10 10 11 11 12
4 4 6 6 6 4 5 4 2 9 5 4 5 5 4 3 2 1 2 4 7 9 11 11 12 11 12 9 7 9 10 10 11 11 12 13 12 9 8 7 8 10 12 12 11 11 10 9 10
1 4 8 6 5 4 3 5 7 8 4 6 5 5 4 2 2 0 2 4 6 8 9 10 11 10 10 9 9 9 10 10 9 9 11 12 11 10 9 6 6 9 11 10 9 9 8 6 6
3 3 5 7 2 3 5 8 9 5 8 7 6 5 4 2 2 2 1 3 5 8 9 9 9 10 9 8 8 8 8 8 7 7 8 9 9 9 8 5 6 8 7 6 4 3 4 5 5
3 2 4 7 2 4 5 8 8 4 8 8 8 7 6 4 3 3 3 4 6 8 9 8 9 9 8 7 7 7 7 6 5 5 4 5 5 6 6 5 6 6 5 4 3 3 3 4 6
5 5 5 6 4 5 7 11 10 7 8 9 9 8 7 6 4 3 4 5 6 7 8 8 8 8 8 6 5 4 4 3 3 3 2 2 3 3 4 4 5 5 2 3 3 4 4 4 5
6 5 7 8 6 5 10 13 13 10 8 9 9 9 9 8 4 4 5 6 7 7 8 7 8 7 7 5 4 4 2 1 1 1 0 1 2 2 2 2 3 3 2 4 4 3 4 4 3
6 7 7 7 4 4 8 12 12 10 10 13 14 13 11 8 6 5 5 5 5 6 7 7 8 7 6 5 4 3 3 2 1 1 1 1 2 3 3 3 2 2 2 4 3 2 3 3 1
7 7 7 7 6 5 6 10 8 7 5 7 11 12 12 13 11 8 7 5 6 6 7 7 7 7 7 6 5 4 4 3 2 2 1 3 3 3 3 3 3 3 2 3 4 3 4 4 3
7 7 7 5 2 5 2 6 9 6 4 7 10 11 12 11 10 9 8 7 6 6 6 7 7 7 7 6 6 5 3 2 2 1 1 3 4 4 4 3 3 3 2 4 4 4 3 3 4
9 5 3 2 2 4 3 5 10 4 7 10 11 12 12 12 12 11 10 8 7 6 6 7 7 7 6 6 6 6 4 2 1 0 1 2 3 5 5 4 3 3 3 4 5 5 4 4 5
6 5 5 5 4 4 6 7 9 6 10 9 12 13 13 12 11 10 9 8 6 6 6 6 7 6 5 6 6 6 5 3 2 0 1 2 3 3 5 5 4 4 4 4 5 5 6 5 6
5 5 3 4 2 7 5 6 10 10 9 11 17 17 14 13 13 12 11 10 9 8 7 7 8 6 5 6 5 5 5 4 3 2 2 2 2 3 4 4 4 4 5 6 5 5 6 6 6
7 9 7 6 5 6 3 8 9 7 7 7 12 14 13 13 13 14 13 12 10 10 9 8 8 6 6 5 5 4 4 3 2 2 2 3 3 3 4 4 5 6 7 7 5 5 6 6 6
8 7 8 5 3 5 7 8 9 3 3 4 10 13 15 15 14 14 12 11 11 10 9 9 9 7 6 6 5 4 3 3 2 2 2 2 3 3 4 5 5 6 6 6 5 5 7 6 7
8 8 6 5 5 6 7 7 6 6 5 5 11 16 16 14 13 12 12 12 10 9 8 8 8 7 6 6 5 3 3 3 2 2 3 3 4 3 4 5 5 6 6 6 6 6 7 7 7
7 5 6 6 5 6 5 7 6 7 8 10 13 15 16 16 15 14 12 11 10 9 8 8 8 6 6 5 4 3 3 2 2 2 4 4 4 5 6 6 6 7 7 7 7 8 8 8 9
8 9 9 6 7 6 4 8 6 6 7 9 10 11 12 13 12 12 11 10 10 10 9 8 8 7 6 5 4 4 3 3 3 4 5 5 6 5 6 6 7 8 8 8 8 9 9 9 10
Wind_Direction
339 351 70 56 54 48 327 283 171 136 117 200 128 106 118 134 155 179 185 147 148 154 167 166 164 161 157 152 144 138 132 125 121 116 111 107 101 97 92 87 84 80 76 73 70 68 68 68 66
356 19 57 59 80 63 304 263 131 138 164 160 87 97 99 121 187 139 133 156 151 156 164 164 165 163 160 155 150 144 137 132 127 122 118 115 108 101 95 91 88 84 80 77 74 72 71 70 67
347 53 76 69 103 171 190 211 165 176 166 128 79 76 113 153 175 180 179 150 147 156 161 164 165 164 162 159 157 151 145 140 135 130 126 121 114 107 101 96 91 87 84 81 77 74 72 71 68
47 44 56 71 246 227 189 197 170 127 48 73 106 73 69 343 238 192 142 144 147 155 160 165 166 167 164 163 160 155 151 147 142 140 136 130 121 114 106 101 96 92 88 84 80 77 73 69 67
62 69 56 18 270 259 218 184 139 103 73 1 88 96 25 331 24 122 140 149 153 157 162 167 169 169 167 166 163 159 157 155 151 149 148 140 131 124 118 112 106 99 93 87 81 77 72 66 61
52 63 70 309 288 285 282 264 95 87 76 39 88 105 251 311 125 142 150 156 158 160 164 170 172 171 171 170 167 164 163 163 161 159 159 153 146 141 136 130 124 115 104 94 85 76 67 58 48
94 85 139 276 296 332 315 360 92 109 94 104 128 123 235 268 208 157 147 154 154 161 164 170 173 173 174 173 171 169 169 170 168 166 166 163 160 159 156 153 151 148 139 122 93 66 45 29 16
119 96 25 338 348 338 321 6 59 107 139 279 103 144 204 221 188 124 115 138 150 159 164 167 170 172 174 175 175 174 172 174 175 174 171 169 172 175 175 177 182 187 194 206 236 273 293 307 314
90 75 322 278 118 291 332 24 341 350 64 37 46 160 201 150 133 120 111 122 150 164 168 167 167 170 172 174 179 177 177 179 179 177 175 174 177 183 192 195 204 215 223 236 253 267 277 285 286
90 137 233 238 200 198 250 22 321 25 22 46 55 48 104 130 147 159 164 166 171 176 179 174 170 170 171 176 180 179 179 181 179 178 178 179 185 194 202 210 217 226 233 243 257 267 275 281 278
151 195 235 255 222 185 189 297 327 134 251 218 198 186 172 170 181 194 196 186 184 180 179 180 176 173 172 175 174 176 177 180 182 184 186 188 191 199 207 213 221 227 233 241 254 265 269 267 267
202 243 239 242 220 188 200 231 295 217 228 216 190 171 166 174 191 201 204 202 187 177 184 181 178 174 175 174 174 176 177 181 185 192 196 191 189 196 203 207 215 219 227 234 244 251 258 260 263
229 266 287 256 239 226 217 226 246 254 240 212 158 135 149 164 197 222 217 202 183 180 181 179 176 173 173 170 173 178 180 186 194 197 200 196 191 198 206 214 219 226 231 234 240 245 251 253 257
230 259 287 272 250 234 220 257 239 260 230 176 154 144 143 144 179 208 212 192 184 178 173 172 173 171 168 168 169 174 181 188 192 196 201 201 199 200 204 214 221 229 232 235 237 240 243 247 252
283 319 315 289 238 227 167 289 244 244 167 163 159 149 134 114 87 123 211 187 180 170 160 162 166 162 162 164 167 171 179 184 189 198 203 205 208 209 210 216 224 233 236 237 240 247 248 252 255
19 4 308 297 221 173 151 260 268 236 166 177 174 160 139 112 66 31 63 135 147 146 145 152 157 156 157 155 155 157 165 170 181 193 200 207 215 219 217 222 235 246 247 243 242 245 257 261 262
10 282 268 297 235 182 193 245 262 215 174 184 186 176 157 133 84 54 63 104 124 136 136 134 139 149 149 141 138 136 138 142 154 170 188 209 223 228 223 229 244 251 248 247 251 254 248 267 271
241 247 260 271 268 200 228 251 262 244 202 197 192 182 168 154 149 111 86 95 105 114 119 122 125 133 132 118 110 104 102 104 122 147 186 208 231 241 236 243 254 259 259 269 269 270 267 261 270
216 239 262 262 258 221 241 255 261 250 217 203 197 187 176 168 156 115 99 100 101 104 113 121 123 127 128 123 121 119 121 99 72 58 247 254 267 271 257 262 276 276 264 268 274 278 284 282 281
224 252 271 284 285 235 261 267 263 245 218 200 190 185 177 164 153 134 116 107 113 121 119 119 123 127 129 129 128 126 124 112 102 13 356 317 301 295 279 263 267 270 271 287 288 276 282 281 272
232 229 244 261 307 314 305 297 281 270 220 195 188 180 174 168 164 156 141 133 129 133 136 131 128 124 121 120 109 88 71 54 39 14 336 327 325 317 303 281 269 269 256 270 276 267 255 276 283
240 234 225 240 283 288 319 293 283 262 239 197 187 180 179 170 161 158 154 153 152 151 139 130 127 123 122 121 124 128 135 153 203 232 279 318 338 335 324 308 291 280 271 272 275 267 251 253 276
216 213 201 223 216 288 253 232 280 261 233 218 199 190 183 174 167 165 164 161 153 148 141 135 126 121 122 121 129 129 132 155 168 59 342 334 332 333 329 320 308 297 285 278 280 284 271 249 253
156 81 42 46 76 281 229 196 274 235 220 210 198 193 184 173 167 160 155 149 145 145 142 139 132 129 128 126 130 138 145 149 137 47 319 318 318 319 324 321 312 300 288 279 277 273 274 265 261
118 103 358 326 329 252 220 202 251 251 231 201 193 190 184 173 166 164 162 164 162 161 159 153 145 144 144 138 140 149 154 157 171 205 243 281 299 300 300 310 303 296 290 288 285 280 279 272 267
176 157 179 220 239 278 263 226 253 267 271 215 185 177 173 175 174 173 174 171 170 169 166 161 158 157 158 152 152 152 153 158 187 210 227 249 256 266 280 295 295 294 296 296 290 283 279 276 270
155 194 182 161 255 269 273 278 300 280 347 148 158 166 180 183 181 178 176 175 174 173 173 169 165 163 167 164 159 162 168 178 208 234 242 256 263 268 288 294 292 293 293 290 287 280 280 279 271
158 161 132 163 208 247 274 268 255 266 241 191 180 184 188 185 183 181 180 180 178 174 170 168 167 169 172 171 173 175 191 206 219 241 266 272 275 276 288 289 288 289 288 287 284 281 277 277 274
158 170 175 176 184 188 257 271 232 239 222 206 203 195 189 187 187 185 183 179 171 166 166 168 170 168 173 178 178 181 210 225 236 251 264 269 273 279 284 286 288 289 289 286 282 279 279 276 277
182 186 165 178 224 201 209 268 274 266 234 206 204 197 192 190 186 181 175 169 170 172 172 174 174 174 180 181 181 198 218 233 251 262 268 270 276 278 279 283 286 286 286 283 279 281 282 277 278
Height
1540 1541 1542 1544 1547 1557 1558 1551 1545 1544 1542 1542 1541 1542 1544 1547 1550 1555 1551 1549 1550 1551 1552 1554 1555 1557 1558 1559 1560 1561 1561 1562 1562 1562 1562 1562 1562 1562 1561 1561 1560 1560 1559 1559 1558 1558 1558 1557 1557
1541 1542 1544 1544 1554 1566 1560 1549 1545 1541 1540 1541 1541 1542 1544 1546 1546 1547 1548 1548 1549 1551 1552 1553 1555 1556 1558 1559 1560 1561 1561 1562 1562 1562 1562 1562 1562 1562 1562 1561 1561 1560 1560 1559 1559 1559 1558 1558 1558
1542 1543 1544 1547 1556 1562 1555 1547 1542 1540 1540 1540 1542 1543 1545 1546 1546 1547 1548 1548 1549 1550 1552 1553 1554 1556 1557 1559 1560 1561 1561 1562 1562 1563 1563 1563 1563 1563 1562 1562 1561 1561 1561 1560 1560 1560 1559 1559 1559
1543 1544 1545 1552 1554 1550 1546 1543 1540 1540 1540 1540 1541 1544 1545 1547 1547 1547 1547 1548 1549 1550 1551 1553 1554 1556 1557 1558 1560 1561 1561 1562 1563 1563 1563 1563 1563 1563 1563 1562 1562 1562 1561 1561 1561 1560 1560 1560 1560
1543 1544 1550 1557 1552 1545 1541 1539 1538 1539 1540 1541 1542 1544 1545 1546 1546 1546 1547 1548 1549 1550 1551 1552 1554 1555 1557 1558 1559 1560 1561 1562 1563 1563 1563 1564 1563 1563 1563 1563 1563 1562 1562 1562 1562 1561 1561 1561 1561
1545 1546 1558 1560 1552 1545 1541 1539 1538 1539 1541 1542 1543 1544 1545 1546 1546 1546 1547 1548 1549 1550 1551 1552 1553 1555 1556 1557 1559 1560 1561 1562 1563 1563 1563 1564 1564 1564 1563 1563 1563 1563 1563 1563 1563 1562 1562 1562 1562
1546 1550 1556 1554 1552 1547 1542 1540 1539 1540 1541 1542 1542 1544 1544 1545 1546 1546 1547 1548 1549 1550 1550 1551 1553 1554 1555 1557 1558 1560 1561 1562 1562 1563 1564 1564 1564 1564 1564 1564 1564 1564 1564 1563 1563 1563 1563 1562 1562
1545 1550 1554 1555 1552 1548 1543 1541 1541 1540 1541 1542 1542 1542 1543 1544 1545 1546 1546 1547 1548 1549 1550 1551 1552 1553 1555 1556 1558 1559 1560 1561 1562 1563 1563 1564 1564 1564 1564 1564 1564 1564 1564 1564 1563 1563 1563 1563 1562
1545 1554 1558 1552 1549 1547 1543 1542 1541 1541 1540 1541 1541 1541 1542 1543 1544 1544 1545 1545 1546 1547 1548 1550 1551 1552 1554 1555 1557 1559 1560 1561 1562 1562 1563 1563 1563 1564 1564 1564 1564 1564 1564 1563 1563 1563 1563 1563 1562
1545 1555 1551 1546 1544 1544 1543 1542 1541 1540 1540 1540 1540 1540 1541 1541 1542 1542 1542 1542 1543 1544 1546 1548 1550 1551 1553 1554 1556 1558 1559 1560 1561 1562 1562 1563 1563 1563 1563 1563 1563 1563 1563 1563 1563 1562 1562 1562 1561
1544 1548 1545 1543 1542 1542 1541 1541 1540 1539 1539 1538 1538 1539 1539 1539 1540 1540 1540 1540 1541 1542 1544 1546 1548 1550 1551 1553 1555 1556 1558 1559 1560 1561 1561 1562 1562 1562 1562 1562 1562 1562 1562 1562 1562 1561 1561 1560 1560
1543 1542 1542 1541 1540 1540 1539 1538 1538 1537 1536 1536 1537 1537 1537 1537 1537 1537 1537 1538 1539 1540 1542 1544 1546 1548 1550 1552 1554 1555 1557 1558 1559 1560 1560 1560 1561 1561 1561 1561 1561 1561 1561 1560 1560 1559 1559 1558 1557
1542 1541 1540 1539 1539 1538 1537 1536 1536 1534 1534 1534 1534 1535 1535 1534 1534 1534 1534 1535 1536 1537 1539 1542 1544 1546 1548 1550 1552 1554 1555 1557 1558 1558 1559 1559 1559 1559 1559 1559 1559 1559 1559 1558 1558 1557 1556 1555 1554
1540 1539 1538 1537 1536 1535 1535 1535 1535 1530 1531 1532 1532 1532 1532 1532 1532 1531 1531 1532 1533 1535 1537 1539 1542 1545 1547 1549 1551 1552 1554 1555 1556 1557 1557 1558 1558 1558 1558 1558 1557 1557 1556 1556 1555 1554 1553 1552 1551
1539 1540 1538 1534 1533 1533 1534 1535 1531 1528 1529 1530 1530 1530 1530 1530 1530 1529 1528 1529 1530 1532 1535 1538 1540 1543 1545 1548 1550 1551 1553 1554 1555 1555 1556 1556 1556 1556 1556 1555 1555 1555 1554 1553 1552 1551 1550 1548 1547
1540 1543 1545 1535 1532 1532 1537 1538 1527 1526 1527 1527 1528 1528 1528 1528 1528 1528 1527 1528 1529 1531 1534 1536 1539 1541 1544 1546 1548 1550 1551 1552 1553 1554 1554 1554 1554 1554 1553 1553 1552 1552 1551 1550 1549 1548 1546 1545 1543
1546 1550 1546 1538 1532 1532 1534 1534 1525 1524 1524 1524 1525 1526 1526 1526 1526 1527 1527 1527 1528 1530 1532 1535 1537 1540 1543 1545 1547 1548 1549 1550 1551 1552 1552 1552 1552 1551 1551 1550 1550 1549 1548 1547 1545 1544 1542 1540 1538
1550 1547 1544 1541 1532 1532 1533 1531 1523 1522 1522 1521 1522 1523 1524 1524 1525 1525 1526 1527 1528 1529 1532 1534 1536 1539 1541 1543 1545 1547 1548 1549 1549 1550 1550 1550 1549 1549 1548 1547 1546 1545 1544 1543 1541 1539 1538 1536 1534
1541 1543 1544 1538 1530 1531 1531 1527 1520 1517 1518 1518 1519 1519 1521 1522 1523 1524 1525 1526 1527 1529 1530 1533 1535 1537 1539 1541 1543 1545 1546 1547 1547 1547 1547 1547 1546 1545 1544 1543 1542 1541 1540 1538 1537 1535 1533 1531 1530
1539 1542 1541 1535 1528 1529 1528 1524 1516 1511 1511 1510 1512 1514 1516 1519 1521 1522 1523 1525 1526 1528 1530 1532 1534 1536 1538 1540 1542 1543 1545 1545 1545 1545 1545 1544 1543 1542 1541 1540 1539 1537 1536 1535 1533 1531 1529 1527 1526
1537 1539 1537 1536 1530 1527 1528 1525 1515 1507 1505 1506 1508 1510 1512 1514 1517 1519 1522 1523 1525 1527 1529 1531 1533 1535 1537 1539 1541 1542 1543 1543 1543 1543 1542 1542 1540 1539 1538 1536 1535 1534 1532 1531 1529 1527 1525 1522 1521
1537 1530 1531 1532 1536 1540 1533 1539 1517 1508 1505 1504 1505 1507 1509 1512 1515 1517 1520 1522 1524 1526 1529 1531 1532 1534 1536 1538 1539 1540 1541 1541 1541 1540 1540 1539 1538 1536 1535 1533 1532 1530 1528 1527 1525 1523 1521 1518 1516
1529 1526 1528 1529 1534 1540 1537 1539 1520 1508 1507 1503 1502 1504 1506 1509 1512 1515 1518 1521 1524 1526 1528 1530 1532 1533 1535 1537 1538 1538 1539 1539 1538 1538 1537 1536 1535 1533 1531 1530 1528 1526 1524 1522 1520 1518 1516 1513 1511
1523 1528 1532 1539 1542 1547 1535 1539 1524 1509 1499 1496 1498 1500 1503 1507 1511 1514 1517 1520 1522 1525 1527 1529 1531 1532 1534 1535 1536 1536 1536 1536 1536 1535 1534 1532 1531 1530 1528 1526 1524 1522 1520 1517 1515 1513 1510 1508 1505
1524 1536 1548 1547 1552 1545 1530 1531 1516 1494 1490 1489 1491 1495 1499 1504 1508 1511 1514 1517 1520 1523 1525 1527 1529 1531 1532 1533 1534 1534 1534 1534 1533 1532 1530 1529 1527 1526 1524 1522 1520 1517 1515 1512 1510 1507 1505 1502 1499
1525 1530 1545 1549 1548 1538 1524 1525 1503 1488 1485 1484 1486 1491 1497 1501 1505 1508 1511 1515 1518 1521 1523 1526 1528 1529 1531 1531 1532 1532 1532 1531 1530 1529 1527 1525 1523 1522 1520 1517 1515 1513 1510 1507 1504 1501 1498 1496 1493
1524 1528 1527 1537 1536 1538 1527 1512 1496 1485 1484 1484 1486 1491 1494 1497 1501 1505 1509 1513 1516 1518 1521 1523 1526 1527 1529 1529 1530 1529 1529 1528 1527 1525 1524 1522 1520 1518 1515 1513 1510 1508 1505 1502 1498 1495 1492 1489 1486
1512 1518 1530 1535 1540 1541 1527 1515 1504 1489 1486 1486 1487 1488 1491 1495 1499 1503 1507 1510 1513 1517 1519 1521 1523 1525 1526 1527 1527 1527 1526 1525 1524 1522 1520 1518 1516 1513 1511 1508 1505 1502 1499 1496 1492 1489 1486 1482 1479
1514 1517 1520 1527 1532 1536 1532 1514 1489 1486 1483 1483 1483 1484 1487 1491 1495 1499 1504 1508 1511 1514 1517 1519 1521 1522 1523 1524 1524 1524 1523 1521 1520 1518 1516 1514 1511 1509 1506 1503 1500 1496 1493 1490 1486 1482 1479 1475 1472
1504 1508 1515 1525 1525 1526 1528 1512 1482 1481 1479 1479 1481 1483 1486 1489 1493 1497 1501 1505 1508 1511 1513 1516 1518 1519 1520 1520 1520 1520 1519 1518 1516 1514 1512 1509 1507 1504 1501 1497 1494 1490 1487 1483 1479 1475 1472 1468 1464